Location: Newark
(42.8481°N, 0.4872°E)
Time: 08:25:09
(UTC+00:00)

A-11 Canister half - Pass Details

Date: 01 November 2020
Orbit: 1516 x 1684 km, 47.2° (Epoch: 04 December)

Event Time Altitude Azimuth Distance (km) Brightness Sun altitude
Rises 21:06:27 0° 265° (W) 4,933 12.2 -46.6°
Reaches altitude 10° 21:09:41 10° 268° (W) 3,939 11.6 -47.1°
Enters shadow 21:16:07 44° 282° (WNW) 2,175 9.8 -48.1°
